Regional Weather Roundup
Issued by NWS Jackson, KY

Home | Current Version | Previous Version | Text Only | Print | Product List | Glossary On
Versions: 1 2 3 4 5 6 7 8 9 10 11 12 13 14 15 16 17 18 19 20 21 22 23 24 25 26 27
000
ASUS43 KJKL 240110
RWRJKL

EAST KENTUCKY HOURLY WEATHER ROUNDUP
NATIONAL WEATHER SERVICE JACKSON KY
900 PM EDT SUN APR 23 2017

NOTE: "FAIR" INDICATES FEW OR NO CLOUDS BELOW 12,000 FEET WITH
NO SIGNIFICANT WEATHER AND/OR OBSTRUCTIONS TO VISIBILITY.

* THESE REPORTS ARE NOT UNDER NWS QUALITY CONTROL AND MAY NOT
  REPORT WEATHER SUCH AS PRECIPITATION AND FOG.

KYZ079-080-083-085-087-088-110-112-115-119-120-240200
...EASTERN KENTUCKY...

CITY           SKY/WX    TMP DP  RH WIND       PRES   REMARKS
JACKSON        CLOUDY    51  50  96 VRB3      29.93R
LONDON         CLOUDY    54  49  83 E10G21    29.82S
SOMERSET*      CLOUDY    52  50  93 E7        29.87S
MONTICELLO*    CLOUDY    54  52  93 N12G23    29.86S
WILLIAMSBURG*  CLOUDY    54  54 100 NE6       29.84S
MIDDLESBORO*   CLOUDY    54  51  89 SE3G18    29.86S
HARLAN APT*    CLOUDY    52  50  93 N3        29.87F
PIKE CO APT*   LGT RAIN  49  49 100 NE8       29.95R
BIG SANDY APT* DRIZZLE   51  51 100 NE5       29.95S
MOREHEAD APT*  MOCLDY    54  48  82 NE10G17   29.94F
ASHLAND*       CLOUDY    54  52  94 CALM      29.95F
$$

KYZ035-036-041-042-044-050-067-078-099-240200
...CENTRAL KENTUCKY...

CITY           SKY/WX    TMP DP  RH WIND       PRES   REMARKS
MT STERLING*   CLOUDY    54  48  82 E14       29.95R
FLEMING/MASON* CLOUDY    55  47  74 NE9       29.96F
DANVILLE*      CLOUDY    52  46  82 NE13G18   29.91R
LEXINGTON      CLOUDY    56  45  66 NE17      29.91R
FRANKFORT      CLOUDY    59  44  57 NE15G26   29.88F
LOUISVILLE     CLOUDY    62  39  42 N5        29.92R
LEBANON*       MOCLDY    55  46  71 N8        29.90S
GLASGOW*       RAIN      53  52  95 N8        29.88R
BOWLING GREEN  CLOUDY    53  50  89 N6        29.89S
$$

KYZ091>093-OHZ055-061-077-WVZ005-015-034-035-042-240200
...SOUTHERN OHIO/WEST VIRGINIA...

CITY           SKY/WX    TMP DP  RH WIND       PRES   REMARKS
COVINGTON      CLOUDY    61  35  37 NE9       29.96R
COLUMBUS       CLOUDY    61  35  37 NE7       29.99R
DAYTON         CLOUDY    57  33  40 NE9       30.00R
WILMINGTON     CLOUDY    57  39  51 NE5       29.99R
HUNTINGTON     LGT RAIN  54  49  83 NE3       29.96R
CHARLESTON     CLOUDY    56  52  86 CALM      29.96R
PINEVILLE*     LGT RAIN  50  48  92 MISG      30.01S
BECKLEY        LGT RAIN  47  43  86 SE13G20   29.99R
BLUEFIELD      LGT RAIN  44  42  93 E9        29.97F
LOGAN CO APT*  LGT RAIN  50  50 100 CALM      29.96S
$$

VAZ002-007-008-TNZ017-027-036-066-071-240200
...SOUTHWEST VIRGINIA/EAST TENNESSEE...

CITY           SKY/WX    TMP DP  RH WIND       PRES   REMARKS
WISE*          LGT RAIN  48  48 100 E5        29.94S
JONESVILLE*    LGT RAIN  52  50  93 E5        29.90S
ABINGDON*      RAIN      48  47  97 E10       29.95R
BRISTOL        RAIN      49  47  93 E7        29.92R
MORRISTOWN*    CLOUDY    52  52 100 E12       29.84S
SEVIERVILLE*   CLOUDY    54  54 100 E26       29.73F
LAFOLLETTE*    CLOUDY    54  52  94 VRB5      29.86R
OAK RIDGE      CLOUDY    55  52  89 NE5       29.82R
CROSSVILLE     CLOUDY    53  51  93 E6        29.80S
NASHVILLE      RAIN      53  51  93 N12       29.85S FOG
$$

...KEY TO REMARKS...
VSB - VISIBILITY IN MILES
WCI - WIND CHILL INDEX
HX  - HEAT INDEX

$$




USA.gov is the U.S. government's official web portal to all federal, state and local government web resources and services.